Williston, ND

8:18 PM CDT on May 23, 2017 (GMT -0500)
Sloulin International

Weather History for KISN - October, 2013

Change the Weather History Date:

Wednesday, October 9, 2013

  Actual Average Record
Temperature  
Mean Temperature 48 °F 46 °F  
Max Temperature 63 °F 60 °F 89 °F (1910)
Min Temperature 32 °F 32 °F 4 °F (1985)
Degree Days  
Heating Degree Days 17 19  
Month to date heating degree days 162 154  
Since 1 July heating degree days 348 500  
Cooling Degree Days 0 0  
Month to date cooling degree days 0 0  
Year to date cooling degree days 405 455  
Moisture  
Dew Point 35 °F    
Average Humidity 59    
Maximum Humidity 82    
Minimum Humidity 36    
Precipitation  
Precipitation 0.10 in 0.03 in 0.83 in (2005)
Month to date precipitation 0.11 0.29  
Year to date precipitation 17.90 12.47  
Snow  
Snow 0.00 in - - ()
Month to date snowfall 0.0  
Snow Depth 0.00 in    
Sea Level Pressure  
Sea Level Pressure 30.03 in    
Wind  
Wind Speed 5 mph (NNE)    
Max Wind Speed 14 mph    
Max Gust Speed 17 mph    
Visibility 10 miles    
Events      
T = Trace of Precipitation, MM = Missing Value Source: NWS Daily Summary

Daily Weather History Graph

Daily Weather History Graph

Search for Another Location

Airport or City:

Trip Planner

Search our weather history database for the weather conditions in past years. The results will help you decide how hot, cold, wet, or windy it might be!

Date:

Astronomy

Oct. 09, 2013 Rise Set
Actual Time 8:05 AM CDT 7:16 PM CDT
Civil Twilight 7:34 AM CDT 7:48 PM CDT
Nautical Twilight 6:58 AM CDT 8:23 PM CDT
Astronomical Twilight 6:22 AM CDT 9:00 PM CDT
Moon 1:21 PM CDT (10/9) 10:35 PM CDT (10/9)
Length of Visible Light 12h 13m
Length of Day
11h 11m
Waxing Crescent, 25% of the Moon is Illuminated
Oct 9
Waxing Crescent
Oct 11
First Quarter
Oct 18
Full
Oct 26
Last Quarter
Nov 3
New

Hourly Weather History & Observations

Time (CDT) Temp. Windchill Dew Point Humidity Pressure Visibility Wind Dir Wind Speed Gust Speed Precip Events Conditions
12:52 AM 46.9 °F - 34.0 °F 61% 29.89 in 10.0 mi West 6.9 mph - N/A   Clear
1:52 AM 46.0 °F - 33.1 °F 61% 29.91 in 10.0 mi Calm Calm - N/A   Clear
2:52 AM 46.0 °F 43.1 °F 30.9 °F 56% 29.93 in 10.0 mi SSW 5.8 mph - N/A   Clear
3:52 AM 39.0 °F - 30.0 °F 70% 29.95 in 10.0 mi Calm Calm - N/A   Clear
4:52 AM 42.1 °F 40.2 °F 32.0 °F 67% 29.97 in 10.0 mi South 3.5 mph - N/A   Clear
5:52 AM 42.1 °F 37.7 °F 30.0 °F 62% 29.99 in 10.0 mi SW 6.9 mph - N/A   Clear
6:52 AM 36.0 °F 32.1 °F 28.0 °F 73% 30.04 in 10.0 mi WSW 4.6 mph - N/A   Clear
7:52 AM 34.0 °F 29.8 °F 28.0 °F 79% 30.07 in 10.0 mi NW 4.6 mph - N/A   Clear
8:52 AM 39.0 °F 35.7 °F 33.1 °F 79% 30.07 in 10.0 mi North 4.6 mph - N/A   Clear
9:52 AM 46.0 °F 43.1 °F 35.1 °F 66% 30.08 in 10.0 mi Variable 5.8 mph - N/A   Clear
10:52 AM 50.0 °F - 37.0 °F 61% 30.09 in 10.0 mi NNE 11.5 mph - N/A   Clear
11:52 AM 53.1 °F - 37.9 °F 57% 30.10 in 10.0 mi NNE 8.1 mph - N/A   Clear
12:52 PM 57.0 °F - 37.9 °F 49% 30.11 in 10.0 mi NNE 9.2 mph - N/A   Clear
1:52 PM 60.1 °F - 39.0 °F 46% 30.09 in 10.0 mi NNE 9.2 mph - N/A   Clear
2:52 PM 61.0 °F - 37.9 °F 42% 30.08 in 10.0 mi North 4.6 mph - N/A   Clear
3:52 PM 63.0 °F - 37.0 °F 38% 30.06 in 10.0 mi NE 8.1 mph - N/A   Clear
4:52 PM 62.1 °F - 35.1 °F 37% 30.06 in 10.0 mi NNE 4.6 mph - N/A   Clear
5:52 PM 62.1 °F - 36.0 °F 38% 30.05 in 10.0 mi NNE 6.9 mph - N/A   Clear
6:52 PM 57.0 °F - 36.0 °F 45% 30.06 in 10.0 mi East 5.8 mph - N/A   Clear
7:52 PM 51.1 °F - 36.0 °F 56% 30.05 in 10.0 mi NNE 5.8 mph - N/A   Clear
8:52 PM 48.0 °F - 37.0 °F 66% 30.05 in 10.0 mi North 4.6 mph - N/A   Partly Cloudy
9:52 PM 50.0 °F - 37.0 °F 61% 30.03 in 10.0 mi NNE 4.6 mph - N/A   Overcast
10:52 PM 46.0 °F 43.9 °F 37.0 °F 71% 30.03 in 10.0 mi NNE 4.6 mph - N/A   Partly Cloudy
11:52 PM 48.0 °F - 39.0 °F 71% 30.03 in 10.0 mi Calm Calm - N/A   Overcast